EW8409 Weather Reports


Display with metric or nautical units.
time (UTC)temp
F
wind
direction
speed
MPH
gust
MPH
rain 1hr
in
rain 24hr
in
rain mn
in
humidity
%
barometer
mb
20260508213006 55 320 0.0 0.0 0.00 0.07 0.07 45 1010.0
20260508211500 56 341 0.0 0.0 0.00 0.07 0.07 46 1010.1
20260508210000 55 65 0.0 0.0 0.00 0.07 0.07 47 1010.1
20260508204558 54 56 0.0 0.0 0.00 0.07 0.07 49 1010.2
20260508203107 54 23 0.0 0.0 0.00 0.07 0.07 50 1010.5
20260508201602 54 47 0.0 0.0 0.00 0.07 0.07 52 1010.6
20260508200053 55 27 0.0 1.0 0.00 0.07 0.07 42 1010.6
20260508194553 56 165 0.0 1.0 0.00 0.07 0.07 43 1010.6
20260508193052 55 39 0.0 1.0 0.00 0.07 0.07 43 1010.9
20260508191551 57 206 0.0 0.0 0.00 0.07 0.07 40 1011.1
20260508190049 56 52 0.0 0.0 0.00 0.07 0.07 42 1011.1
20260508184549 57 230 0.0 0.0 0.00 0.07 0.07 44 1011.2
20260508183047 57 139 0.0 1.0 0.00 0.07 0.07 42 1011.3
20260508181544 55 260 0.0 1.0 0.00 0.07 0.07 51 1011.3
20260508180042 55 160 0.0 0.0 0.00 0.07 0.07 54 1011.4
20260508174546 56 158 0.0 0.0 0.00 0.07 0.07 51 1011.7
20260508173038 55 168 0.0 1.0 0.00 0.07 0.07 54 1011.7
20260508171534 54 214 0.0 1.0 0.00 0.07 0.07 54 1011.9
20260508170030 52 210 0.0 0.0 0.00 0.07 0.07 58 1012.0
20260508164527 51 63 0.0 3.0 0.00 0.07 0.07 61 1012.2
20260508163031 51 233 0.0 0.0 0.00 0.07 0.07 61 1012.4
20260508161523 50 167 0.0 1.0 0.00 0.07 0.07 63 1012.6
20260508160024 49 127 0.0 0.0 0.00 0.07 0.07 69 1012.6
20260508154519 48 204 0.0 0.0 0.00 0.07 0.07 71 1012.6
20260508153016 47 24 0.0 0.0 0.00 0.07 0.07 73 1012.6
20260508151513 46 266 0.0 1.0 0.00 0.07 0.07 78 1012.6
20260508150027 45 81 0.0 0.0 0.00 0.07 0.07 79 1012.5
20260508144506 44 48 0.0 1.0 0.00 0.07 0.07 83 1012.5
20260508143009 44 168 0.0 0.0 0.00 0.07 0.07 88 1012.5
20260508141501 43 160 0.0 0.0 0.00 0.07 0.07 89 1012.4
20260508140118 42 219 0.0 0.0 0.00 0.07 0.07 90 1012.6
20260508134600 42 124 0.0 0.0 0.02 0.07 0.07 91 1012.8
20260508133108 42 323 0.0 0.0 0.03 0.07 0.07 93 1012.8
20260508131602 41 184 0.0 0.0 0.05 0.07 0.07 94 1012.7
20260508124556 41 34 0.0 0.0 0.04 0.05 0.05 95 1012.8
20260508123055 41 191 0.0 0.0 0.03 0.04 0.04 95 1012.5
20260508121553 41 77 0.0 0.0 0.01 0.02 0.02 97 1012.3
20260508120050 41 167 0.0 0.0 0.00 0.01 0.01 96 1012.0
20260508114547 40 167 0.0 0.0 0.00 0.01 0.01 96 1011.8
20260508113046 40 167 0.0 0.0 0.00 0.01 0.01 96 1011.6
20260508111553 40 167 0.0 0.0 0.00 0.01 0.01 96 1011.3
20260508110045 39 167 0.0 0.0 0.00 0.01 0.01 96 1011.1
20260508104544 39 167 0.0 0.0 0.00 0.01 0.01 96 1011.1
20260508103049 39 167 0.0 0.0 0.00 0.01 0.01 96 1011.0
20260508101547 39 167 0.0 0.0 0.00 0.01 0.01 96 1011.1
20260508100042 39 167 0.0 0.0 0.00 0.01 0.01 96 1011.3
20260508094543 39 166 0.0 0.0 0.00 0.01 0.01 96 1011.4
20260508093041 39 211 0.0 0.0 0.00 0.01 0.01 96 1011.5
20260508091548 38 169 0.0 0.0 0.00 0.01 0.01 96 1011.6
20260508090041 38 167 0.0 0.0 0.00 0.01 0.01 96 1011.5
20260508084538 37 163 0.0 0.0 0.00 0.01 0.01 95 1011.5
20260508083048 38 193 0.0 0.0 0.00 0.01 0.01 95 1011.4
20260508081537 38 193 0.0 0.0 0.00 0.01 0.01 95 1011.3
20260508080054 38 146 0.0 0.0 0.00 0.01 0.01 95 1011.4
20260508074535 38 146 0.0 0.0 0.00 0.01 0.01 94 1011.4
20260508073032 39 146 0.0 0.0 0.00 0.01 0.01 94 1011.3
20260508071531 39 146 0.0 0.0 0.00 0.01 0.01 94 1011.4
20260508070028 40 146 0.0 0.0 0.00 0.01 0.01 93 1011.6
20260508064539 40 146 0.0 0.0 0.00 0.01 0.01 93 1011.3
20260508063021 41 146 0.0 0.0 0.00 0.01 0.01 93 1011.5
20260508061520 42 146 0.0 0.0 0.00 0.01 0.01 93 1011.6
20260508060017 42 118 0.0 0.0 0.00 0.01 0.01 93 1011.7
20260508054531 42 193 0.0 0.0 0.00 0.01 0.01 93 1011.8
20260508053016 42 210 0.0 0.0 0.01 0.01 0.01 93 1011.8
20260508051514 42 199 0.0 0.0 0.01 0.01 0.01 92 1011.8
20260508050012 42 199 0.0 0.0 0.01 0.01 0.01 91 1011.7
20260508044511 42 199 0.0 0.0 0.01 0.01 0.01 90 1011.7
20260508043010 43 222 0.0 0.0 0.00 0.00 0.00 89 1011.8
20260508041507 43 302 0.0 0.0 0.00 0.00 0.00 88 1011.7
20260508040022 43 249 0.0 0.0 0.00 0.00 0.00 86 1011.7
20260508034505 43 265 0.0 0.0 0.00 0.00 0.00 83 1011.7
20260508033006 44 16 0.0 0.0 0.00 0.00 0.00 81 1011.5
20260508031511 44 74 0.0 0.0 0.00 0.00 0.00 80 1011.5
20260508030003 44 183 0.0 0.0 0.00 0.00 0.00 79 1011.4
20260508024513 45 26 0.0 0.0 0.00 0.00 0.00 77 1011.5
20260508023008 45 17 0.0 0.0 0.00 0.00 0.00 75 1011.4
20260508021502 45 20 0.0 1.0 0.00 0.00 0.00 74 1011.4
20260508020001 45 141 0.0 0.0 0.00 0.00 0.00 74 1011.1
20260508014502 44 21 0.0 0.0 0.00 0.00 0.00 76 1011.1
20260508013102 44 21 0.0 0.0 0.00 0.00 0.00 75 1010.9
20260508011558 44 21 0.0 0.0 0.00 0.00 0.00 74 1010.7
20260508010058 44 21 0.0 0.0 0.00 0.00 0.00 70 1010.5
20260508004600 45 21 0.0 0.0 0.00 0.03 0.00 68 1010.5
20260508003058 46 21 0.0 0.0 0.00 0.03 0.00 65 1010.4
20260508001559 46 21 0.0 0.0 0.00 0.03 0.00 62 1010.3
20260508000100 47 358 0.0 0.0 0.00 0.03 0.00 61 1010.2
20260507234601 48 69 0.0 0.0 0.00 0.11 0.00 59 1010.1
20260507233116 48 327 0.0 0.0 0.00 0.11 0.00 57 1010.1
20260507231554 48 327 0.0 0.0 0.00 0.11 0.00 56 1010.1
20260507230054 49 356 0.0 0.0 0.00 0.11 0.00 56 1010.1
20260507224554 49 20 0.0 0.0 0.00 0.11 0.00 55 1010.2
20260507223104 49 47 0.0 0.0 0.00 0.11 0.00 53 1010.1
20260507221552 49 15 0.0 0.0 0.00 0.11 0.00 53 1010.1
20260507220052 50 42 0.0 0.0 0.00 0.11 0.00 53 1010.1
20260507214551 50 354 0.0 0.0 0.00 0.11 0.00 53 1010.1